CAPE
0 0 0 0 0 0 0 0 1 2 1 0 0 0 2 0 0 0 0 0 0 23 0 0 0 0 0 0 0 2 0 0 0 0 0 42 83 76 482 749 817 892 391 387 480
0 0 0 0 0 0 1 1 1 1 2 0 0 0 0 0 0 0 0 0 0 81 0 0 0 0 0 0 0 0 0 0 0 0 0 40 62 169 540 625 956 737 538 520 623
0 0 0 0 0 0 1 1 1 1 2 0 0 1 0 0 0 0 0 0 0 0 0 0 0 0 0 0 0 0 0 0 0 0 0 44 13 180 502 558 990 856 666 691 848
0 0 0 0 0 0 0 0 1 1 1 0 0 0 0 0 0 0 0 0 0 0 0 0 0 0 0 0 0 0 0 0 0 0 0 22 38 258 413 418 759 801 722 838 767
0 0 0 0 0 0 0 1 1 1 0 2 0 0 0 0 0 0 0 0 0 0 0 0 0 0 0 0 0 0 0 0 0 0 0 36 195 387 520 993 1106 901 855 842 747
0 0 0 0 0 1 1 1 1 0 0 0 0 0 0 0 0 0 0 0 0 0 0 0 0 0 0 0 0 0 0 0 0 0 0 101 194 296 990 1157 1256 1037 1117 942 856
0 1 1 0 0 0 0 1 0 0 0 0 0 0 0 0 0 0 0 0 0 0 0 0 0 0 0 0 0 0 0 0 0 0 0 0 32 182 1173 1223 1342 1316 1433 1422 1414
0 1 0 0 0 0 0 0 0 0 0 0 0 0 0 0 0 0 0 0 0 0 0 0 0 0 0 0 0 0 0 0 0 0 0 0 0 790 1203 1316 1396 1406 1526 1560 1645
3 2 1 2 1 1 1 0 0 0 0 0 0 0 0 0 0 0 0 0 0 0 0 0 0 0 0 0 0 0 0 0 0 0 0 0 5 756 1062 1340 1561 1595 1568 1591 1676
2 2 1 1 1 2 0 0 0 0 0 0 0 0 0 0 0 0 0 0 0 0 0 0 0 0 0 0 0 0 0 0 0 0 0 0 52 855 920 1159 1457 1607 1683 1707 1693
2 2 1 1 0 0 0 0 0 0 0 0 0 0 0 0 0 0 0 0 0 0 0 0 0 0 0 0 0 0 0 0 0 0 0 0 137 820 845 1013 1142 1341 1508 1570 1641
2 2 1 1 0 0 0 0 0 0 0 0 0 0 0 0 0 0 0 0 0 0 0 0 0 0 0 0 0 0 0 0 0 0 0 13 238 666 871 936 1042 1109 1211 1328 1342
2 2 2 1 0 0 0 0 0 0 0 0 0 0 0 0 0 0 0 0 0 0 0 0 0 0 0 0 0 0 0 0 0 0 0 15 99 742 927 932 932 1094 1148 1163 1228
1 1 2 2 0 0 0 0 0 0 0 0 0 0 0 0 0 0 0 0 0 0 0 0 0 0 0 0 0 0 0 0 0 0 0 0 0 103 901 1015 1055 1200 1265 1309 1420
2 1 2 0 0 0 0 0 0 0 0 0 0 0 0 0 0 0 0 0 0 0 0 0 0 0 0 0 0 0 0 0 0 0 0 0 0 7 126 894 1076 1092 1201 1383 1747
1 0 3 0 0 0 0 0 0 0 0 0 0 0 0 0 0 0 0 0 0 0 0 0 0 0 0 0 0 0 0 0 0 0 0 0 0 0 30 610 760 1147 1216 1499 1638
0 0 1 0 0 0 0 0 0 0 0 0 0 0 0 0 0 0 0 0 0 0 0 0 0 0 0 0 0 0 0 0 0 0 0 0 0 0 0 0 125 991 1289 1439 1633
0 0 0 0 0 0 0 0 0 0 0 0 0 0 0 0 0 0 0 0 0 0 0 0 0 0 0 0 0 0 0 0 0 0 0 0 0 0 0 0 0 643 1345 1327 1566
0 0 0 0 0 0 0 0 0 0 0 0 0 0 0 0 0 0 0 0 0 0 0 0 0 0 0 0 0 0 0 0 0 0 0 0 0 0 0 0 0 394 1058 1217 1493
0 0 0 0 0 0 0 0 0 0 0 0 0 0 0 0 0 0 0 0 0 0 0 0 0 0 0 0 0 0 0 0 0 0 0 0 0 0 0 6 130 458 829 1035 1050
0 0 0 0 0 0 0 0 0 0 0 0 0 0 0 0 0 0 0 0 0 0 0 0 0 0 0 0 0 0 0 0 0 0 0 0 0 0 0 0 178 404 629 697 709
0 0 0 0 0 0 0 0 0 0 0 0 0 0 0 0 0 0 0 0 0 0 0 0 0 0 0 0 0 0 0 0 0 0 0 0 0 0 0 0 101 301 548 562 510
0 0 0 0 0 0 0 0 0 0 0 0 0 0 0 0 0 0 0 0 0 0 0 0 0 0 0 0 0 0 0 0 0 0 0 0 0 0 0 0 0 191 371 343 238
0 0 0 0 0 0 0 0 0 0 0 0 0 0 0 0 0 0 0 0 0 0 0 0 0 0 0 0 0 0 0 0 0 0 0 0 0 0 0 0 0 3 162 182 177
0 0 0 0 0 0 0 0 0 0 0 0 0 0 0 0 0 0 0 0 0 0 0 0 0 0 0 0 0 0 0 0 0 0 0 0 0 0 0 0 0 0 77 130 194
0 0 0 0 0 0 0 0 0 0 0 0 0 0 0 0 0 0 0 0 0 0 0 0 0 0 0 0 0 0 0 0 0 0 0 0 0 0 0 0 0 0 10 49 226
0 0 0 0 0 0 0 0 0 0 0 0 0 0 0 0 0 0 0 0 0 0 0 0 0 0 0 0 0 0 0 0 0 0 0 0 0 0 0 0 0 0 2 47 171
CIN
0 0 0 0 0 0 0 0 0 0 0 0 0 0 0 0 0 0 0 0 0 -168 -1 0 0 0 0 0 0 -37 0 0 0 0 0 -124 -118 -163 -145 -115 -177 -228 -271 -322 -314
0 0 0 0 0 0 0 0 0 0 0 0 0 0 0 0 0 0 0 0 0 -759 0 0 0 0 0 0 0 0 0 0 0 0 0 -64 -158 -137 -91 -103 -218 -320 -355 -374 -303
0 0 0 0 0 0 0 0 0 0 0 0 0 0 0 0 0 0 0 0 0 0 0 0 0 0 0 0 0 0 0 0 0 0 0 -142 -108 -138 -79 -70 -121 -274 -360 -341 -264
0 0 0 0 0 0 0 0 0 0 0 0 0 0 0 0 0 0 0 0 0 0 0 0 0 0 0 0 0 0 0 0 0 0 0 -154 -124 -110 -68 -79 -123 -291 -335 -325 -290
0 0 0 0 0 0 0 0 0 0 0 0 0 0 0 0 0 0 0 0 0 0 0 0 0 0 0 0 0 0 0 0 0 0 0 -222 -133 -89 -133 -178 -235 -296 -289 -267 -259
0 0 0 0 0 0 0 0 0 0 0 0 0 0 0 0 0 0 0 0 0 0 0 0 0 0 0 0 0 0 0 0 0 0 0 -109 -142 -99 -222 -228 -239 -253 -220 -224 -231
0 0 0 0 0 0 0 0 0 0 0 0 0 0 0 0 0 0 0 0 0 0 0 0 0 0 0 0 0 0 0 0 0 0 0 0 -65 -127 -216 -204 -208 -199 -165 -162 -155
0 0 0 0 0 0 0 0 0 0 0 0 0 0 0 0 0 0 0 0 0 0 0 0 0 0 0 0 0 0 0 0 0 0 0 0 0 -197 -212 -172 -185 -169 -156 -137 -129
0 0 0 0 0 0 0 0 0 0 0 0 0 0 0 0 0 0 0 0 0 0 0 0 0 0 0 0 0 0 0 0 0 0 0 0 -20 -166 -216 -160 -189 -176 -149 -118 -108
0 0 0 0 0 0 0 0 0 0 0 0 0 0 0 0 0 0 0 0 0 0 0 0 0 0 0 0 0 0 0 0 0 0 0 0 -46 -153 -188 -148 -161 -167 -150 -122 -110
0 0 0 0 0 0 0 0 0 0 0 0 0 0 0 0 0 0 0 0 0 0 0 0 0 0 0 0 0 0 0 0 0 0 0 0 -54 -96 -180 -140 -149 -164 -160 -150 -113
0 0 0 0 0 0 0 0 0 0 0 0 0 0 0 0 0 0 0 0 0 0 0 0 0 0 0 0 0 0 0 0 0 0 0 -156 -139 -180 -168 -145 -114 -103 -143 -127 -139
0 0 0 0 0 0 0 0 0 0 0 0 0 0 0 0 0 0 0 0 0 0 0 0 0 0 0 0 0 0 0 0 0 0 0 -135 -114 -151 -171 -193 -182 -156 -144 -140 -127
0 0 0 0 0 0 0 0 0 0 0 0 0 0 0 0 0 0 0 0 0 0 0 0 0 0 0 0 0 0 0 0 0 0 0 0 0 -150 -113 -123 -173 -131 -138 -105 -139
0 0 0 0 0 0 0 0 0 0 0 0 0 0 0 0 0 0 0 0 0 0 0 0 0 0 0 0 0 0 0 0 0 0 0 0 0 -88 -230 -106 -111 -148 -129 -105 -122
0 0 0 0 0 0 0 0 0 0 0 0 0 0 0 0 0 0 0 0 0 0 0 0 0 0 0 0 0 0 0 0 0 0 0 0 0 0 -44 -74 -70 -136 -144 -116 -131
0 0 0 0 0 0 0 0 0 0 0 0 0 0 0 0 0 0 0 0 0 0 0 0 0 0 0 0 0 0 0 0 0 0 0 0 0 0 0 0 -185 -178 -139 -140 -145
0 0 0 0 0 0 0 0 0 0 0 0 0 0 0 0 0 0 0 0 0 0 0 0 0 0 0 0 0 0 0 0 0 0 0 0 0 0 0 0 0 -226 -131 -119 -124
0 0 0 0 0 0 0 0 0 0 0 0 0 0 0 0 0 0 0 0 0 0 0 0 0 0 0 0 0 0 0 0 0 0 0 0 0 0 0 0 0 -258 -199 -174 -130
0 0 0 0 0 0 0 0 0 0 0 0 0 0 0 0 0 0 0 0 0 0 0 0 0 0 0 0 0 0 0 0 0 0 0 0 0 0 0 -213 -272 -255 -243 -210 -186
0 0 0 0 0 0 0 0 0 0 0 0 0 0 0 0 0 0 0 0 0 0 0 0 0 0 0 0 0 0 0 0 0 0 0 0 0 0 0 0 -176 -195 -213 -219 -216
0 0 0 0 0 0 0 0 0 0 0 0 0 0 0 0 0 0 0 0 0 0 0 0 0 0 0 0 0 0 0 0 0 0 0 0 0 0 0 0 -228 -148 -183 -197 -175
0 0 0 0 0 0 0 0 0 0 0 0 0 0 0 0 0 0 0 0 0 0 0 0 0 0 0 0 0 0 0 0 0 0 0 0 0 0 0 0 0 -203 -227 -310 -347
0 0 0 0 0 0 0 0 0 0 0 0 0 0 0 0 0 0 0 0 0 0 0 0 0 0 0 0 0 0 0 0 0 0 0 0 0 0 0 0 0 -287 -345 -363 -370
0 0 0 0 0 0 0 0 0 0 0 0 0 0 0 0 0 0 0 0 0 0 0 0 0 0 0 0 0 0 0 0 0 0 0 0 0 0 0 0 0 -28 -357 -371 -369
0 0 0 0 0 0 0 0 0 0 0 0 0 0 0 0 0 0 0 0 0 0 0 0 0 0 0 0 0 0 0 0 0 0 0 0 0 0 0 0 0 0 -382 -343 -315
0 0 0 0 0 0 0 0 0 0 0 0 0 0 0 0 0 0 0 0 0 0 0 0 0 0 0 0 0 0 0 0 0 0 0 0 0 0 0 0 0 -19 -89 -283 -284
Wind_Speed
20 20 20 19 18 18 18 18 17 15 14 12 11 8 6 7 9 4 7 5 4 12 8 8 4 3 2 2 1 1 2 4 4 2 2 4 4 4 3 8 4 4 7 14 21
20 20 20 20 19 18 17 17 17 16 14 12 10 8 5 4 2 8 7 9 8 11 6 5 4 2 3 1 2 2 3 7 2 3 3 9 6 9 5 7 6 15 18 23 21
21 21 21 21 21 20 18 18 17 16 13 12 8 5 4 3 3 4 5 11 13 8 3 2 4 1 2 0 1 1 5 4 2 7 5 8 8 4 10 6 6 17 23 21 20
21 21 21 22 22 21 20 19 18 16 13 11 6 4 2 3 2 2 7 13 12 6 5 5 2 2 2 2 2 2 2 3 5 2 6 9 10 6 8 4 7 21 24 22 21
22 22 22 22 22 22 21 20 18 15 12 8 2 3 3 2 5 4 14 13 8 6 6 5 3 3 2 1 2 1 4 5 6 1 5 10 6 3 5 8 19 21 19 19 18
23 23 23 23 23 22 21 20 17 12 10 3 3 4 2 2 3 8 13 9 10 5 5 4 3 2 4 2 2 0 6 7 3 4 6 8 6 4 6 13 18 20 19 17 17
23 23 23 23 23 23 23 21 17 11 6 3 5 3 1 1 2 9 5 4 5 4 5 2 1 1 1 1 3 3 3 3 3 7 5 7 7 5 13 14 18 16 14 15 15
23 23 23 23 24 23 23 22 15 3 3 5 4 3 4 2 7 8 5 5 3 2 2 2 1 3 0 1 3 1 1 4 3 9 3 7 5 8 13 16 15 15 13 14 15
23 23 23 23 23 22 21 19 4 5 4 5 3 2 2 4 4 6 3 5 6 2 0 1 2 3 2 2 3 2 3 2 3 1 5 6 3 9 13 13 14 14 13 13 12
24 24 24 24 22 20 20 8 2 4 3 4 4 3 3 3 5 7 4 10 4 7 3 1 3 2 2 5 5 3 1 2 4 5 5 10 6 10 12 13 12 12 12 12 13
25 25 25 25 23 20 9 2 3 3 3 5 0 3 1 2 7 5 5 6 4 4 5 1 6 8 7 5 2 3 2 5 3 3 6 9 8 10 11 11 11 13 12 12 13
25 25 26 26 24 18 3 3 4 3 7 7 7 6 4 2 5 5 9 5 3 5 4 4 7 5 3 4 4 2 4 5 3 3 5 8 5 3 10 10 12 12 12 12 10
25 25 26 27 28 2 4 4 3 2 3 4 5 5 4 7 4 11 11 5 4 6 7 4 3 8 5 4 5 5 3 5 4 5 7 11 3 5 6 7 9 9 8 10 10
25 24 24 30 3 5 4 2 6 5 3 4 6 6 7 5 5 4 11 5 3 9 6 5 2 5 5 6 7 4 5 4 8 5 4 3 5 7 11 12 12 12 11 9 9
25 24 21 13 8 4 3 8 2 4 4 5 5 3 4 10 9 7 4 3 7 7 6 3 5 7 7 4 10 3 4 4 4 4 5 5 4 4 7 14 19 15 15 10 7
26 24 22 2 3 8 10 7 3 3 7 4 5 8 11 6 4 6 10 3 2 5 2 3 1 3 2 5 2 13 5 5 4 1 5 2 7 5 8 19 18 16 15 12 9
29 28 14 3 3 4 7 3 3 6 2 7 6 9 17 9 6 8 14 14 8 7 8 2 3 1 4 8 5 3 6 2 3 3 1 4 4 7 3 6 14 16 17 14 12
32 28 1 6 3 5 3 4 6 3 6 2 4 9 14 10 10 5 13 14 5 3 5 7 7 8 5 3 5 5 4 3 3 3 2 1 5 1 3 10 11 15 19 15 14
28 3 3 4 9 3 4 8 8 6 2 1 4 8 10 7 5 7 11 15 13 10 5 6 5 2 0 4 2 6 5 3 7 2 4 1 3 10 4 6 4 14 19 18 16
7 5 3 2 8 3 5 7 5 4 2 2 7 5 13 15 10 13 11 8 10 14 6 4 5 1 5 4 11 2 10 5 1 3 3 2 4 5 6 3 6 14 19 19 17
3 4 6 4 4 2 9 7 6 6 5 4 3 5 5 8 13 10 12 4 8 11 10 8 3 4 5 5 10 6 5 6 5 2 4 4 2 5 6 5 11 13 17 18 18
5 3 3 3 4 1 6 6 4 4 4 3 3 5 6 10 8 10 12 2 6 14 12 9 6 7 4 2 2 0 4 7 7 6 0 3 6 3 5 9 12 15 17 18 19
5 4 1 3 4 4 2 4 3 4 4 3 3 6 3 7 4 6 7 3 8 11 12 11 5 6 4 4 3 6 5 4 6 3 8 6 6 2 3 5 10 13 15 15 15
4 2 1 2 2 2 4 4 5 2 4 3 3 2 3 4 0 8 9 2 5 4 5 8 5 9 15 15 5 7 8 8 8 7 7 8 8 4 2 4 7 10 12 13 12
2 2 2 1 2 2 2 1 5 5 2 2 3 7 5 4 3 3 2 6 4 6 4 5 6 4 1 2 6 9 15 14 11 6 8 3 7 3 2 5 10 11 11 12 14
4 4 2 2 4 3 1 3 3 1 2 3 4 4 7 5 5 9 7 4 4 4 4 2 4 3 4 1 3 8 11 12 7 5 3 5 8 5 6 4 6 12 14 17 17
2 1 3 1 1 2 1 1 3 2 4 2 4 2 6 3 3 4 4 7 4 5 5 4 7 5 5 1 3 4 12 13 7 7 7 9 8 3 6 9 11 13 16 18 17
Wind_Direction
353 350 347 344 342 341 338 334 331 328 324 321 319 311 297 299 293 184 233 213 175 147 134 142 157 154 181 104 137 165 95 77 38 32 22 151 118 101 99 137 79 40 128 130 148
351 349 346 342 340 339 335 331 329 326 324 320 317 308 298 315 257 242 240 155 160 165 135 151 138 140 102 73 65 12 29 26 269 278 320 170 143 144 154 156 81 82 108 131 149
350 347 344 341 338 337 335 331 329 326 324 319 315 298 286 296 253 242 187 153 155 175 148 116 115 64 89 358 94 101 32 7 286 271 234 174 139 142 155 197 175 150 142 147 157
349 345 342 340 337 335 334 331 329 325 323 319 301 258 254 239 138 84 167 151 149 160 124 130 129 116 98 91 68 319 294 275 308 336 157 178 141 146 162 358 137 149 150 152 164
347 344 341 339 336 333 331 331 328 324 323 318 236 201 222 184 260 30 135 134 137 150 149 148 157 137 87 56 14 161 320 296 308 292 155 142 144 115 74 95 125 137 149 158 167
344 342 339 337 336 333 330 330 325 321 319 304 183 184 233 204 72 136 128 131 146 144 155 158 147 154 102 140 243 171 300 321 9 112 126 155 129 140 98 132 129 147 155 167 175
342 339 337 336 335 333 330 328 318 306 297 191 179 263 238 49 107 146 140 121 150 132 149 177 108 39 142 95 7 353 317 14 137 162 146 164 157 74 142 144 140 154 162 170 182
340 338 336 335 334 333 330 328 318 258 183 166 185 268 249 38 140 150 139 101 118 116 96 116 139 95 318 72 45 339 115 167 141 171 143 226 182 107 151 149 152 160 167 179 190
338 336 334 333 332 332 330 327 24 121 137 158 225 278 213 145 181 166 181 148 129 137 119 92 101 63 128 151 182 35 142 173 199 209 146 206 171 141 164 164 159 170 182 188 191
337 335 333 332 331 331 327 298 79 129 167 219 249 254 202 158 146 141 165 158 141 136 119 122 81 149 118 206 213 159 213 175 225 154 190 188 169 156 171 182 168 176 186 195 202
336 334 332 331 329 331 322 209 221 187 214 231 236 288 309 104 143 153 166 163 129 147 167 117 209 213 212 206 106 111 208 246 231 175 175 208 179 176 172 193 180 184 192 201 218
336 334 332 330 327 328 192 261 90 9 298 235 248 274 264 287 147 142 167 164 154 156 139 166 237 197 205 172 213 227 218 185 116 54 194 172 157 197 197 204 211 199 202 211 211
334 334 333 329 322 247 289 246 22 177 262 271 199 209 197 177 195 180 179 137 140 157 185 196 119 130 182 167 172 177 196 174 133 106 78 144 180 214 205 224 219 227 220 217 223
332 333 336 331 270 339 260 51 322 203 299 220 206 223 152 183 199 162 177 154 157 198 168 249 177 214 182 223 193 173 176 139 131 192 180 275 211 218 216 227 221 221 220 216 223
329 330 332 328 310 250 36 331 285 221 276 141 159 128 155 182 135 184 173 125 184 167 183 158 178 176 191 205 185 104 93 99 99 114 170 194 239 146 212 235 234 212 219 214 204
324 324 330 173 227 259 316 316 209 227 247 172 140 157 159 181 136 115 174 107 99 151 228 263 271 236 157 100 97 147 105 71 91 127 237 112 246 204 197 227 234 206 203 197 193
321 317 309 229 246 342 307 192 192 228 349 169 166 171 179 170 148 164 178 187 185 172 211 194 209 205 151 113 110 158 160 163 196 201 333 113 246 260 222 287 251 213 196 190 189
322 315 223 214 282 330 276 166 216 238 241 38 137 156 188 159 191 151 160 188 215 143 151 200 182 181 170 200 177 183 237 211 221 236 330 104 240 182 277 294 259 201 198 189 187
321 320 243 250 225 277 187 200 210 212 284 251 132 158 185 190 183 171 186 202 201 188 195 173 223 136 65 131 194 152 188 62 110 108 258 72 254 267 288 336 215 185 184 184 188
315 321 269 2 161 191 188 224 229 220 290 239 220 200 180 187 177 193 179 181 198 199 211 157 200 86 128 113 57 230 135 159 88 182 261 235 285 287 315 321 176 184 192 185 185
289 311 17 139 185 197 202 218 226 235 228 222 242 194 205 174 185 181 190 181 206 173 204 160 258 132 167 213 169 144 175 67 107 296 255 290 274 208 241 254 204 203 197 189 187
327 281 62 207 167 253 207 198 210 217 192 234 249 244 207 176 167 185 192 213 164 150 180 180 205 216 181 60 273 91 172 171 215 195 232 310 272 124 272 264 211 205 199 196 193
328 289 337 234 206 197 241 234 238 209 214 189 244 226 191 186 164 172 190 101 161 168 167 172 207 198 178 168 159 217 163 129 109 128 191 224 249 354 322 253 229 215 203 194 181
288 296 285 85 25 262 194 214 208 193 241 236 262 221 174 175 285 165 151 127 145 143 86 139 149 213 228 227 173 178 182 179 208 206 194 227 273 266 333 263 231 238 218 201 189
306 44 35 336 124 329 262 330 194 204 204 253 214 223 186 169 141 155 139 135 104 144 93 190 191 182 63 209 194 197 180 174 198 182 223 222 219 235 268 251 239 220 205 195 190
334 334 354 285 289 258 241 188 212 213 247 169 252 198 196 179 206 184 160 203 161 135 119 111 149 151 139 148 170 171 175 177 188 176 197 177 248 250 264 268 235 220 206 202 198
9 268 281 10 324 234 150 191 169 300 194 339 296 206 169 94 5 34 65 86 100 155 129 134 145 173 174 38 134 223 201 192 187 189 194 201 232 200 263 254 254 239 217 214 195